Regional Weather Roundup
Issued by NWS Wakefield, VA

Home | Current Version | Previous Version | Graphics & Text | Print | Product List | Glossary On
Versions: 1 2 3 4 5 6 7 8 9 10 11 12 13 14 15 16 17 18 19 20 21 22 23 24 25 26 27
000
ASUS41 KAKQ 230610
RWRAKQ

REGIONAL WEATHER ROUNDUP
NATIONAL WEATHER SERVICE WAKEFIELD VA
200 AM EDT THU OCT 23 2014

Note: "fair" indicates few or no clouds below 12,000 feet with no
significant weather and/or obstructions to visibility. * = Denotes
station may not report precipitation (e.g., rain,snow,etc.),
thunder or fog.

VAZ042-051-052>054-056-230700-
NORTHERN VIRGINIA

CITY           SKY/WX    TMP DP  RH WIND       PRES   REMARKS
WASH NATIONAL  MOCLDY    55  41  59 NW18G25   29.92S
DULLES         PTCLDY    50  41  71 NW14G21   29.94S
FORT BELVOIR   PTCLDY    52  42  70 NW14      29.92F
QUANTICO       PTCLDY    52  41  66 NW16G22   29.93S
FREDERICKSBRG* CLEAR     53  43  69 NW13G20   29.93S
STAFFORD*      CLEAR     50  41  70 NW13      29.97S
WARRENTON      CLEAR     52  46  80 NW16G23   29.93F
CULPEPER*      CLEAR     54  43  66 NW7G17    29.95F
MANASSAS*      CLEAR     52  43  71 NW15      29.94S
LEESBURG*      CLEAR     52  45  76 NW18G24   29.95S
WINCHESTER     CLEAR     50  37  62 NW15G24   29.97F
FRONT ROYAL*   MOCLDY    50  41  71 NW13G22   29.98F
LURAY*         CLOUDY    52  43  71 W3        30.01F
$$

VAZ048-049-060>072-079>083-230700-
CENTRAL AND SOUTH CENTRAL VIRGINIA...AND NORTH CENTRAL NORTH CAROLINA

CITY           SKY/WX    TMP DP  RH WIND       PRES   REMARKS
RICHMOND       MOCLDY    52  42  69 NW10      29.93F
CHESTERFIELD*  CLOUDY   N/A N/A N/A W6        29.95F
PETERSBURG*    CLOUDY    50  43  74 W8        29.96S
HANOVER        MOCLDY    49  43  80 W6        29.95F
TAPPAHANNOCK*  CLOUDY    53  40  59 W9G20     29.91F
CHARLOTTSVILLE CLEAR     52  39  61 NW10      29.98F
ORANGE*        MOCLDY    52  43  71 W5        29.97F
LOUISA*        CLEAR     46  43  87 W6        29.94F
FARMVILLE*     CLEAR     52  39  62 CALM      29.97S
CREWE*         CLEAR     48  41  76 W5        29.97S
FORT PICKETT*  CLEAR     47  42  83 NW8       29.97S
LUNENBURG*     CLEAR     49  43  79 NW7       29.98R
SOUTH HILL*    CLEAR     48  45  87 CALM      30.03S
LAWRENCEVILLE* CLEAR     43  42  98 CALM      29.97R
ROANOKE RAPIDS CLEAR     48  43  81 W3        29.98S
RALEIGH        CLEAR     47  40  76 W3        30.02F
$$

VAZ088>098-230700-
SOUTHEAST VIRGINIA

CITY           SKY/WX    TMP DP  RH WIND       PRES   REMARKS
NORFOLK        CLOUDY    55  44  66 NW9G17    29.88S
VIRGINIA BEACH CLOUDY    57  46  66 NW20G30   29.86F
NORFOLK NAVAL  CLOUDY    57  44  62 NW17G25   29.90S
WEST POINT*    CLOUDY    55  43  62 W12G18    29.91F
NEWPORT NEWS   MOCLDY    56  44  64 NW15      29.89F
LANGLEY AFB    CLOUDY    54  45  72 NW15G24   29.89S
FORT EUSTIS    CLOUDY    54  43  65 NW16G25   29.88F
WILLIAMSBURG*  CLEAR     55  46  71 NW10      29.91F
HR EXEC AP*    CLOUDY    52  45  76 NW8       29.93R
FRANKLIN*      CLOUDY    52  45  76 W8        29.93F
WAKEFIELD      CLOUDY    53  43  68 VRB5      29.92F
$$

VAZ020-022-025-037-045-230700-
WEST CENTRAL AND SOUTHWEST VIRGINIA

CITY           SKY/WX    TMP DP  RH WIND       PRES   REMARKS
STAUNTON*      CLOUDY    49  39  67 NW8       30.05S
HOT SPRINGS VA CLOUDY    39  37  93 W22G32    30.02S
LYNCHBURG      CLEAR     49  39  68 VRB5      30.02F
DANVILLE       CLEAR     51  39  63 NW7       30.03S
SOUTH BOSTON*  NOT AVBL
MARTINSVILLE   CLEAR     48  42  77 CALM      30.06S
ROANOKE        CLEAR     49  38  65 NW26      30.08F
BLACKSBURG     CLOUDY    46  43  87 NW13      30.11S
DUBLIN*        CLOUDY    46  39  76 W9        30.12S
MARION*        CLOUDY    46  39  79 W8        30.16S
HILLSVILLE*    CLOUDY    43  37  80 NW17      30.10S
RICHLANDS*     CLOUDY    45  42  89 NW7       30.17S
WISE*          CLOUDY    43  43 100 N7        30.18S
ABINGDON*      CLOUDY    47  41  78 N5        30.17F
$$

MDZ021>025-VAZ099-100-230700-
SOUTHERN MARYLAND AND THE DELMARVA PENINSULA

CITY           SKY/WX    TMP DP  RH WIND       PRES   REMARKS
PATUXENT RIVER CLOUDY    54  44  69 NW24G33   29.85F
BAY BRIDGE APT   N/A     54  45  71 NW14G25   29.85F
LEONARDTOWN    MOCLDY    52  43  71 W8G21     29.88F
DOVER          CLOUDY    52  48  87 NW17G23   29.75F
GEORGETOWN     LGT RAIN  52  47  83 NW9       29.78F
EASTON         CLOUDY    55  48  76 N15G21    29.86F
CAMBRIDGE      CLOUDY    55  45  67 NW16G25   29.83S VSB<1/4
SALISBURY      CLOUDY    55  45  67 NW15G24   29.79F
OCEAN CITY     LGT RAIN  51  47  86 NW13G21   29.77S FOG
WALLOPS ISLAND CLOUDY    55  47  74 N14G24    29.80F
ACCOMACK*      CLOUDY    55  45  67 NW20G29   29.82F
$$

NCZ012>017-030>032-230700-
EASTERN NORTH CAROLINA

CITY           SKY/WX    TMP DP  RH WIND       PRES   REMARKS
ELIZABETH CITY CLOUDY    56  45  66 W16G22    29.90S
AHOSKIE*       PTCLDY    49  44  82 CALM      29.96F
EDENTON*       MOCLDY    54  46  74 NW13G18   29.93S
CURRITUCK*     CLOUDY    55  44  68 W9G16     29.89S
KILL DEVIL HLS CLOUDY    56  48  74 NW9G24    29.87S
MANTEO         CLOUDY    56  48  75 NW10G21   29.89S
CAPE HATTERAS  CLOUDY    57  49  74 NW14G25   29.90F
TARBORO*       CLEAR     49  45  86 W5        29.99S
GOLDSBORO      CLEAR     51  48  92 W6        29.99S
WASHINGTON     PTCLDY    53  46  76 NW5       29.97S
GREENVILLE     CLEAR     52  46  82 NW7       30.01R
NEW BERN       CLOUDY    56  46  69 W7        29.99S
WILMINGTON     CLEAR     52  44  74 NW9       30.01S
$$

VAZ048-230700-
ELSEWHERE

CITY           SKY/WX    TMP DP  RH WIND       PRES   REMARKS
HARRISBURG PA  CLOUDY    52  43  71 NW18G29   29.87F
BALTIMORE      CLOUDY    52  43  71 NW12G18   29.87F
ANNAPOLIS      CLOUDY    54  44  69 NW13      29.85F
ANDREWS AFB    CLOUDY    52  43  71 NW17      29.88F
WILMINGTON DE  CLOUDY    52  47  83 NW18      29.79F
PHILADELPHIA   LGT RAIN  52  47  83 NW21G30   29.76F
WILDWOOD NJ*   CLOUDY    54  45  71 NW15G28   29.73S
ATLANTIC CITY  CLOUDY    51  49  92 NW18G28   29.69F
HENDERSON NC   CLEAR     48  39  71 W5        30.00F
GREENSBORO     CLEAR     44  39  82 W3        30.04S
ROCKY MOUNT    CLEAR     50  44  80 W6        30.00S
FAYETTEVILLE   CLEAR     52  41  66 W7        30.03F
CHARLOTTE      CLEAR     46  37  71 NW5       30.10F
$$

VAZ100-230700-
MARINE

STATION/POSITION TIME  TEMP    WIND        PRES    WAVE   SWELL
                       AIR SEA DIR/SP/G            HT/PER HT/PER
                 (UTC) (F)     (DEG/KT/KT) (MB)    (FT/S) (FT/S)
44066 TX TWR #4  0600   63 67   30/ 23/ 27  998.6F  10/ 8   3/10
CAPE MAY NJ      0600   55 64  330/ 15/ 28 1006.1F
LEWES DE         0600   55 61  320/ 31/ 35 1007.0F
15NM E FENWICK I 0600   56 65  310/ 31/ 37 1005.2F  10/ 8
OCEAN-CITY-INLET 0600   53 64  330/ 15/ 20 1007.3R
WACHAPREAGUE VA  0600   56 60  310/  4/ 16 1009.6F
THOMAS POINT MD  0600   54 62  320/ 21/ 24 1011.6F
GOOSES REEF MD   0600   56     330/ 19/ 25 1011.2R
COVE POINT MD    0600   54     330/ 21/ 26 1010.7S
SOLOMONS ISLAND  0600      64                N/A
BISHOPS HEAD MD  0600   55 56  320/ 17/ 25 1009.7F
PINEY POINT MD   0600          340/ 26/ 30   N/A
POTOMAC MD       0600   56     330/ 23/ 27 1010.5S
CAMBRIDGE MD     0600   56 61  310/ 17/ 22 1009.9S
LEWISETTA VA     0600   55 61  320/ 16/ 24 1011.2F
RAPPAHANNOCK LGT 0600          320/ 28/ 33 1010.7F
STINGRAY PT      0600   56     320/ 21/ 25 1011.7S
YORK RVR RNG VA  0600   55     330/ 22/ 27 1010.9F
YORKTOWN VA      0600   56 66  330/ 24/ 28 1011.5F
JAMESTOWN VA     0600   56     340/ 17/ 23   N/A
DOMINION TERM VA 0600   56     330/ 19/ 23 1012.1F
KIPTOPEKE VA     0600      64  320/ 25/ 30   N/A
CHES BAY BRIDGE  0600   56 66  300/ 25/ 30 1011.1S
CHESAPEAKE LGHT  0500   58     340/ 31/ 36 1010.6F
WILLOUBY STN VA  0600   55     310/ 17/ 22 1010.6F
S CRANEY ISL VA  0600          300/ 15/ 22 1011.8S
CAPE HENRY BUOY  0600      68                N/A     8/ 5   2/11
1ST LANDING BUOY 0600   58     320/ 23/ 31 1011.0R
CAPE CHARLES BUO 0600      67                N/A     7/ 9   5/ 9
64NM E OF VA BCH 0600   60 69  330/ 27/ 33 1007.9R  10/ 6   5/15
DUCK PIER NC     0600   56 67  300/ 20/ 26 1010.6F
44100 DUCK FRF   0600      69                N/A     9/ 8   2/11
44056 DUCK FRF   0600                        N/A     6/ 8   2/11
OREGON INLET NC  0600   57 63  300/ 13/ 19 1011.6R
HATTERAS NC      0600   58 65  310/ 22/ 26 1013.0F
DIAMOND SHLS NC  0600   60     300/ 23/ 29 1012.1F   6/ 5   2/10
CAPE LOOKOUT NC  0500   58     310/ 13/ 18 1014.6S
$$



USA.gov is the U.S. government's official web portal to all federal, state and local government web resources and services.